QPF
0.08 0.09 0.07 0.05 0.05 0.05 0.06 0.08 0.11 0.12 0.11 0.08 0.05 0.03 0.03 0.04 0.03 0.02 0.03 0.02 0.01 0.01 0.00 0.00 0.00 0.01 0.02 0.03 0.03 0.02 0.02 0.01 0.01 0.01 0.02 0.03 0.03 0.03
0.09 0.10 0.09 0.07 0.07 0.05 0.05 0.06 0.08 0.10 0.10 0.07 0.05 0.03 0.02 0.03 0.04 0.03 0.04 0.02 0.01 0.01 0.01 0.01 0.00 0.01 0.02 0.02 0.01 0.01 0.01 0.01 0.01 0.02 0.02 0.02 0.02 0.02
0.06 0.07 0.06 0.06 0.07 0.06 0.05 0.05 0.05 0.06 0.07 0.08 0.06 0.06 0.05 0.04 0.04 0.04 0.03 0.02 0.01 0.01 0.01 0.01 0.00 0.01 0.01 0.01 0.01 0.01 0.00 0.01 0.01 0.01 0.01 0.01 0.01 0.01
0.06 0.07 0.06 0.08 0.10 0.06 0.05 0.05 0.05 0.05 0.06 0.08 0.07 0.06 0.05 0.05 0.05 0.05 0.04 0.03 0.02 0.02 0.01 0.01 0.01 0.01 0.01 0.01 0.00 0.00 0.01 0.01 0.00 0.01 0.01 0.00 0.01 0.01
0.05 0.06 0.07 0.12 0.11 0.07 0.06 0.07 0.05 0.04 0.05 0.05 0.05 0.04 0.03 0.03 0.07 0.07 0.06 0.06 0.05 0.04 0.02 0.02 0.02 0.01 0.01 0.01 0.01 0.00 0.01 0.01 0.00 0.00 0.01 0.00 0.00 0.01
0.04 0.05 0.06 0.10 0.09 0.10 0.07 0.05 0.04 0.04 0.04 0.04 0.04 0.04 0.03 0.03 0.05 0.06 0.06 0.05 0.05 0.04 0.04 0.02 0.01 0.02 0.02 0.02 0.00 0.00 0.00 0.00 0.00 0.00 0.01 0.00 0.00 0.01
0.07 0.06 0.06 0.05 0.05 0.06 0.04 0.03 0.03 0.04 0.04 0.04 0.05 0.05 0.04 0.05 0.04 0.04 0.05 0.06 0.05 0.04 0.04 0.03 0.02 0.01 0.02 0.02 0.01 0.01 0.01 0.01 0.00 0.00 0.01 0.01 0.00 0.00
0.08 0.09 0.08 0.05 0.04 0.03 0.03 0.02 0.02 0.02 0.03 0.04 0.04 0.04 0.05 0.05 0.05 0.05 0.06 0.06 0.06 0.06 0.06 0.05 0.04 0.03 0.02 0.01 0.01 0.01 0.01 0.01 0.01 0.01 0.00 0.00 0.00 0.00
0.10 0.10 0.07 0.05 0.04 0.03 0.03 0.02 0.01 0.01 0.01 0.02 0.02 0.03 0.04 0.04 0.05 0.06 0.07 0.07 0.07 0.08 0.09 0.07 0.06 0.03 0.02 0.01 0.01 0.01 0.01 0.01 0.01 0.00 0.00 0.00 0.00 0.00
0.06 0.06 0.06 0.07 0.06 0.05 0.04 0.03 0.02 0.01 0.01 0.01 0.01 0.02 0.03 0.04 0.04 0.04 0.05 0.05 0.04 0.05 0.06 0.05 0.05 0.04 0.02 0.02 0.01 0.01 0.00 0.00 0.00 0.00 0.00 0.00 0.00 0.00
0.06 0.06 0.05 0.06 0.06 0.05 0.04 0.04 0.04 0.03 0.01 0.01 0.01 0.01 0.01 0.02 0.02 0.02 0.03 0.03 0.03 0.04 0.05 0.04 0.04 0.04 0.03 0.02 0.01 0.01 0.01 0.01 0.00 0.00 0.00 0.00 0.00 0.00
0.05 0.06 0.04 0.06 0.06 0.05 0.04 0.04 0.05 0.05 0.04 0.03 0.02 0.01 0.01 0.01 0.02 0.01 0.03 0.04 0.04 0.04 0.04 0.05 0.05 0.06 0.05 0.03 0.02 0.03 0.02 0.01 0.00 0.00 0.00 0.00 0.00 0.00
0.04 0.03 0.03 0.03 0.03 0.04 0.04 0.04 0.05 0.04 0.05 0.05 0.04 0.04 0.04 0.03 0.02 0.01 0.02 0.04 0.04 0.04 0.04 0.05 0.05 0.07 0.05 0.04 0.04 0.04 0.04 0.02 0.01 0.01 0.01 0.01 0.00 0.00
0.05 0.04 0.03 0.03 0.02 0.02 0.02 0.02 0.03 0.02 0.03 0.03 0.04 0.04 0.05 0.05 0.04 0.04 0.04 0.04 0.03 0.03 0.04 0.05 0.05 0.06 0.06 0.06 0.05 0.05 0.05 0.04 0.03 0.02 0.01 0.01 0.01 0.01
0.05 0.04 0.04 0.03 0.02 0.02 0.02 0.02 0.02 0.02 0.03 0.04 0.04 0.04 0.03 0.04 0.04 0.05 0.07 0.07 0.05 0.04 0.04 0.04 0.05 0.05 0.06 0.06 0.05 0.05 0.06 0.05 0.04 0.04 0.03 0.02 0.02 0.01
0.03 0.03 0.03 0.03 0.02 0.02 0.01 0.02 0.03 0.03 0.04 0.04 0.05 0.04 0.04 0.04 0.04 0.04 0.06 0.07 0.07 0.05 0.04 0.03 0.04 0.05 0.06 0.06 0.07 0.07 0.06 0.05 0.04 0.05 0.05 0.04 0.04 0.03
0.03 0.03 0.03 0.02 0.01 0.01 0.01 0.01 0.02 0.02 0.03 0.03 0.03 0.04 0.04 0.04 0.05 0.06 0.06 0.06 0.06 0.05 0.04 0.04 0.04 0.04 0.04 0.05 0.06 0.05 0.05 0.04 0.03 0.05 0.06 0.06 0.05 0.04
0.03 0.03 0.03 0.03 0.03 0.03 0.03 0.02 0.02 0.03 0.03 0.03 0.02 0.02 0.03 0.03 0.05 0.06 0.07 0.08 0.07 0.07 0.06 0.07 0.08 0.08 0.07 0.06 0.06 0.06 0.06 0.05 0.04 0.04 0.05 0.06 0.06 0.04
0.02 0.02 0.02 0.02 0.02 0.02 0.03 0.03 0.03 0.04 0.04 0.04 0.04 0.04 0.04 0.04 0.03 0.04 0.04 0.05 0.06 0.06 0.06 0.08 0.10 0.10 0.09 0.07 0.06 0.06 0.06 0.06 0.05 0.05 0.06 0.07 0.06 0.04
0.01 0.01 0.01 0.01 0.02 0.03 0.03 0.04 0.05 0.05 0.06 0.06 0.06 0.06 0.06 0.05 0.05 0.04 0.04 0.04 0.04 0.03 0.04 0.04 0.04 0.05 0.05 0.05 0.05 0.03 0.03 0.04 0.05 0.05 0.04 0.05 0.04 0.04
0.01 0.02 0.02 0.02 0.02 0.02 0.03 0.04 0.05 0.06 0.07 0.07 0.06 0.06 0.05 0.05 0.05 0.04 0.04 0.04 0.04 0.04 0.05 0.04 0.05 0.06 0.05 0.06 0.06 0.04 0.03 0.03 0.05 0.05 0.06 0.05 0.04 0.04
0.02 0.02 0.02 0.02 0.03 0.03 0.03 0.03 0.04 0.04 0.05 0.06 0.06 0.07 0.06 0.05 0.05 0.04 0.04 0.05 0.06 0.07 0.08 0.09 0.09 0.09 0.09 0.08 0.07 0.07 0.05 0.03 0.03 0.05 0.05 0.06 0.05 0.05
0.03 0.03 0.02 0.03 0.03 0.03 0.03 0.03 0.03 0.03 0.04 0.05 0.05 0.06 0.06 0.06 0.06 0.06 0.06 0.06 0.07 0.08 0.08 0.08 0.08 0.08 0.07 0.07 0.07 0.06 0.06 0.04 0.03 0.03 0.03 0.03 0.04 0.04
MSLP
1011.52 1011.65 1011.78 1011.88 1011.92 1011.89 1011.77 1011.58 1011.32 1011.03 1010.74 1010.47 1010.24 1010.07 1009.96 1009.89 1009.86 1009.84 1009.82 1009.78 1009.68 1009.53 1009.31 1009.03 1008.69 1008.31 1007.93 1007.57 1007.28 1007.08 1007.00 1007.06 1007.26 1007.59 1008.02 1008.52 1009.05 1009.58
1011.18 1011.29 1011.43 1011.55 1011.63 1011.66 1011.61 1011.49 1011.30 1011.08 1010.84 1010.60 1010.39 1010.22 1010.09 1010.00 1009.95 1009.91 1009.87 1009.81 1009.72 1009.57 1009.36 1009.09 1008.77 1008.41 1008.05 1007.71 1007.43 1007.24 1007.17 1007.24 1007.44 1007.77 1008.20 1008.70 1009.22 1009.74
1010.91 1011.02 1011.16 1011.30 1011.42 1011.49 1011.50 1011.44 1011.32 1011.16 1010.97 1010.77 1010.58 1010.41 1010.28 1010.18 1010.11 1010.06 1010.01 1009.95 1009.86 1009.72 1009.53 1009.29 1008.99 1008.66 1008.32 1008.01 1007.75 1007.57 1007.51 1007.58 1007.78 1008.09 1008.50 1008.98 1009.48 1009.97
1010.76 1010.88 1011.02 1011.18 1011.32 1011.43 1011.48 1011.48 1011.42 1011.31 1011.16 1010.99 1010.82 1010.67 1010.53 1010.43 1010.35 1010.29 1010.24 1010.19 1010.11 1010.00 1009.84 1009.63 1009.37 1009.08 1008.77 1008.48 1008.25 1008.09 1008.03 1008.10 1008.28 1008.57 1008.95 1009.40 1009.87 1010.34
1010.71 1010.84 1011.00 1011.17 1011.34 1011.48 1011.57 1011.61 1011.59 1011.51 1011.40 1011.26 1011.11 1010.96 1010.83 1010.72 1010.64 1010.59 1010.55 1010.51 1010.46 1010.38 1010.26 1010.09 1009.88 1009.64 1009.38 1009.13 1008.92 1008.78 1008.73 1008.79 1008.96 1009.23 1009.58 1009.99 1010.42 1010.85
1010.72 1010.87 1011.05 1011.25 1011.43 1011.60 1011.72 1011.79 1011.80 1011.75 1011.66 1011.54 1011.39 1011.25 1011.12 1011.01 1010.94 1010.89 1010.87 1010.86 1010.84 1010.81 1010.74 1010.63 1010.47 1010.28 1010.07 1009.87 1009.70 1009.59 1009.56 1009.62 1009.78 1010.03 1010.35 1010.72 1011.10 1011.49
1010.73 1010.91 1011.12 1011.34 1011.55 1011.73 1011.88 1011.97 1012.00 1011.98 1011.90 1011.78 1011.64 1011.50 1011.37 1011.26 1011.19 1011.16 1011.16 1011.18 1011.20 1011.21 1011.20 1011.15 1011.06 1010.93 1010.79 1010.65 1010.53 1010.46 1010.45 1010.53 1010.68 1010.91 1011.20 1011.52 1011.86 1012.19
1010.67 1010.90 1011.13 1011.38 1011.62 1011.83 1011.99 1012.11 1012.16 1012.14 1012.07 1011.96 1011.82 1011.67 1011.54 1011.43 1011.36 1011.34 1011.35 1011.40 1011.46 1011.52 1011.56 1011.57 1011.55 1011.50 1011.43 1011.35 1011.29 1011.27 1011.30 1011.39 1011.55 1011.77 1012.03 1012.31 1012.59 1012.85
1010.53 1010.79 1011.07 1011.34 1011.61 1011.84 1012.03 1012.17 1012.23 1012.23 1012.17 1012.05 1011.91 1011.75 1011.61 1011.49 1011.42 1011.40 1011.42 1011.49 1011.58 1011.67 1011.76 1011.83 1011.88 1011.90 1011.89 1011.88 1011.89 1011.92 1011.99 1012.11 1012.28 1012.49 1012.71 1012.95 1013.18 1013.37
1010.33 1010.62 1010.92 1011.23 1011.52 1011.78 1011.99 1012.15 1012.23 1012.24 1012.18 1012.06 1011.91 1011.74 1011.58 1011.45 1011.37 1011.34 1011.36 1011.43 1011.53 1011.65 1011.78 1011.89 1011.99 1012.07 1012.12 1012.18 1012.24 1012.32 1012.44 1012.58 1012.75 1012.95 1013.15 1013.34 1013.51 1013.64
1010.11 1010.43 1010.75 1011.07 1011.38 1011.66 1011.89 1012.06 1012.15 1012.17 1012.12 1012.01 1011.85 1011.67 1011.49 1011.34 1011.23 1011.18 1011.19 1011.24 1011.34 1011.47 1011.61 1011.75 1011.88 1012.00 1012.10 1012.20 1012.31 1012.43 1012.57 1012.72 1012.90 1013.07 1013.25 1013.40 1013.51 1013.59
1009.95 1010.26 1010.59 1010.91 1011.22 1011.51 1011.75 1011.93 1012.03 1012.06 1012.01 1011.90 1011.73 1011.54 1011.35 1011.18 1011.04 1010.96 1010.94 1010.97 1011.05 1011.17 1011.30 1011.44 1011.59 1011.72 1011.85 1011.97 1012.10 1012.23 1012.38 1012.53 1012.70 1012.85 1012.99 1013.11 1013.18 1013.22
1009.88 1010.17 1010.47 1010.77 1011.07 1011.34 1011.58 1011.75 1011.86 1011.90 1011.86 1011.75 1011.58 1011.38 1011.18 1010.99 1010.83 1010.72 1010.66 1010.66 1010.71 1010.80 1010.91 1011.04 1011.16 1011.29 1011.41 1011.53 1011.66 1011.78 1011.91 1012.05 1012.18 1012.31 1012.42 1012.50 1012.55 1012.56
1009.91 1010.15 1010.40 1010.65 1010.91 1011.15 1011.36 1011.53 1011.63 1011.67 1011.63 1011.53 1011.37 1011.18 1010.97 1010.78 1010.60 1010.47 1010.39 1010.35 1010.37 1010.42 1010.50 1010.59 1010.69 1010.79 1010.88 1010.97 1011.06 1011.15 1011.25 1011.35 1011.44 1011.53 1011.61 1011.66 1011.69 1011.69
1009.99 1010.15 1010.33 1010.51 1010.70 1010.89 1011.07 1011.21 1011.30 1011.34 1011.31 1011.23 1011.09 1010.91 1010.72 1010.53 1010.36 1010.22 1010.12 1010.07 1010.06 1010.08 1010.12 1010.17 1010.23 1010.28 1010.33 1010.38 1010.41 1010.45 1010.49 1010.54 1010.58 1010.63 1010.67 1010.70 1010.72 1010.73
1010.04 1010.11 1010.19 1010.28 1010.39 1010.52 1010.64 1010.75 1010.83 1010.87 1010.86 1010.80 1010.69 1010.56 1010.40 1010.24 1010.09 1009.96 1009.87 1009.81 1009.78 1009.78 1009.79 1009.81 1009.83 1009.83 1009.83 1009.82 1009.79 1009.77 1009.75 1009.73 1009.72 1009.72 1009.73 1009.74 1009.76 1009.77
1009.97 1009.93 1009.91 1009.91 1009.93 1009.98 1010.05 1010.12 1010.19 1010.23 1010.25 1010.22 1010.16 1010.08 1009.97 1009.86 1009.76 1009.67 1009.60 1009.56 1009.54 1009.53 1009.53 1009.52 1009.50 1009.47 1009.42 1009.35 1009.26 1009.18 1009.09 1009.02 1008.95 1008.91 1008.89 1008.88 1008.90 1008.92
1009.73 1009.58 1009.45 1009.35 1009.29 1009.27 1009.29 1009.33 1009.38 1009.43 1009.47 1009.50 1009.49 1009.47 1009.43 1009.39 1009.34 1009.31 1009.29 1009.28 1009.28 1009.28 1009.29 1009.27 1009.24 1009.18 1009.09 1008.99 1008.86 1008.72 1008.59 1008.46 1008.36 1008.28 1008.23 1008.22 1008.22 1008.26
1009.33 1009.07 1008.84 1008.65 1008.51 1008.43 1008.40 1008.41 1008.45 1008.51 1008.58 1008.65 1008.70 1008.74 1008.77 1008.80 1008.83 1008.86 1008.89 1008.93 1008.97 1009.01 1009.03 1009.03 1009.00 1008.94 1008.84 1008.72 1008.57 1008.41 1008.24 1008.09 1007.96 1007.86 1007.79 1007.76 1007.76 1007.79
1008.81 1008.46 1008.14 1007.87 1007.66 1007.52 1007.45 1007.44 1007.47 1007.54 1007.63 1007.73 1007.83 1007.93 1008.02 1008.11 1008.21 1008.30 1008.40 1008.49 1008.59 1008.67 1008.73 1008.76 1008.75 1008.71 1008.63 1008.52 1008.38 1008.22 1008.05 1007.89 1007.75 1007.64 1007.57 1007.53 1007.52 1007.54
1008.26 1007.83 1007.43 1007.10 1006.84 1006.65 1006.54 1006.50 1006.52 1006.58 1006.68 1006.80 1006.93 1007.07 1007.21 1007.36 1007.51 1007.66 1007.81 1007.97 1008.11 1008.24 1008.35 1008.43 1008.47 1008.48 1008.44 1008.36 1008.25 1008.12 1007.98 1007.84 1007.72 1007.61 1007.53 1007.48 1007.46 1007.46
1007.79 1007.29 1006.83 1006.45 1006.14 1005.91 1005.76 1005.68 1005.68 1005.72 1005.81 1005.93 1006.07 1006.23 1006.40 1006.58 1006.77 1006.96 1007.17 1007.37 1007.57 1007.75 1007.92 1008.06 1008.16 1008.23 1008.25 1008.24 1008.19 1008.11 1008.01 1007.91 1007.81 1007.72 1007.65 1007.59 1007.55 1007.53
1007.48 1006.92 1006.42 1005.99 1005.63 1005.36 1005.17 1005.05 1005.00 1005.02 1005.07 1005.17 1005.30 1005.46 1005.64 1005.83 1006.05 1006.28 1006.52 1006.76 1007.01 1007.26 1007.48 1007.69 1007.86 1008.00 1008.10 1008.16 1008.18 1008.17 1008.13 1008.08 1008.02 1007.95 1007.88 1007.82 1007.76 1007.70
Thickness
5715 5715 5715 5716 5718 5718 5719 5716 5709 5703 5704 5710 5713 5716 5715 5714 5711 5709 5707 5705 5703 5701 5699 5698 5697 5695 5695 5694 5693 5692 5690 5689 5687 5685 5683 5681 5679 5676
5712 5711 5711 5712 5714 5716 5716 5716 5715 5709 5704 5709 5711 5713 5713 5712 5710 5708 5707 5704 5703 5701 5699 5697 5696 5695 5694 5693 5692 5691 5689 5687 5685 5683 5682 5680 5677 5674
5710 5709 5709 5710 5710 5712 5713 5713 5712 5711 5705 5707 5710 5710 5710 5709 5708 5707 5706 5704 5702 5701 5699 5697 5696 5695 5693 5692 5691 5689 5687 5685 5684 5682 5680 5677 5675 5672
5707 5707 5706 5708 5707 5708 5709 5709 5709 5709 5706 5703 5705 5707 5707 5707 5706 5705 5705 5705 5703 5702 5700 5698 5696 5694 5693 5691 5690 5688 5686 5684 5682 5680 5678 5675 5673 5670
5706 5705 5705 5704 5703 5704 5705 5706 5706 5708 5706 5703 5702 5704 5705 5705 5704 5703 5704 5704 5703 5702 5700 5697 5695 5693 5692 5691 5689 5687 5685 5683 5681 5679 5676 5673 5671 5668
5704 5703 5703 5702 5701 5700 5702 5702 5703 5702 5702 5701 5700 5701 5701 5702 5701 5699 5698 5700 5700 5701 5699 5697 5695 5693 5691 5690 5688 5686 5684 5682 5679 5677 5674 5671 5669 5666
5701 5700 5700 5699 5698 5698 5699 5698 5698 5697 5697 5696 5696 5696 5696 5696 5696 5698 5696 5696 5697 5698 5696 5695 5693 5691 5689 5688 5686 5685 5683 5680 5678 5675 5672 5670 5667 5664
5695 5695 5696 5696 5695 5695 5694 5694 5694 5694 5692 5692 5692 5691 5693 5694 5695 5695 5693 5691 5689 5695 5693 5692 5693 5690 5690 5688 5687 5685 5682 5679 5676 5673 5671 5668 5665 5662
5691 5691 5692 5694 5693 5692 5691 5690 5690 5690 5690 5690 5688 5689 5690 5692 5692 5691 5690 5688 5687 5691 5690 5688 5690 5688 5689 5689 5687 5684 5681 5678 5675 5672 5669 5666 5663 5660
5687 5687 5687 5688 5689 5688 5688 5688 5687 5687 5687 5687 5687 5688 5690 5689 5689 5689 5688 5687 5689 5690 5689 5684 5686 5686 5688 5687 5685 5682 5679 5676 5673 5670 5668 5665 5662 5659
5682 5683 5683 5683 5683 5683 5684 5683 5683 5684 5685 5685 5685 5685 5685 5685 5685 5684 5684 5682 5681 5684 5687 5683 5683 5683 5684 5683 5682 5679 5676 5673 5671 5668 5666 5663 5660 5656
5676 5678 5678 5678 5678 5678 5678 5678 5678 5679 5681 5680 5680 5681 5682 5682 5681 5680 5680 5678 5677 5678 5683 5681 5680 5678 5676 5679 5679 5675 5672 5670 5668 5665 5663 5661 5657 5653
5671 5673 5674 5673 5673 5673 5673 5673 5674 5674 5675 5675 5676 5677 5678 5679 5679 5679 5678 5677 5675 5675 5680 5678 5676 5675 5672 5672 5673 5673 5670 5668 5665 5663 5660 5658 5655 5651
5665 5668 5668 5667 5667 5667 5667 5668 5668 5668 5670 5670 5671 5672 5673 5675 5677 5677 5677 5677 5676 5675 5676 5675 5672 5671 5668 5666 5667 5669 5668 5666 5664 5661 5659 5656 5652 5649
5659 5660 5659 5659 5659 5660 5661 5661 5661 5662 5664 5665 5666 5669 5671 5672 5673 5674 5674 5674 5674 5673 5673 5672 5670 5669 5666 5664 5664 5663 5662 5662 5661 5659 5656 5654 5651 5647
5650 5651 5652 5652 5654 5655 5656 5656 5657 5658 5659 5660 5662 5665 5667 5667 5668 5669 5668 5668 5666 5667 5669 5668 5667 5665 5663 5662 5661 5659 5658 5657 5656 5655 5653 5651 5649 5646
5642 5644 5645 5646 5648 5650 5651 5653 5653 5654 5654 5655 5657 5658 5659 5660 5662 5663 5663 5662 5660 5660 5661 5662 5662 5661 5660 5657 5655 5654 5653 5652 5651 5650 5647 5645 5644 5643
5635 5638 5641 5642 5645 5646 5647 5648 5649 5650 5651 5651 5651 5651 5652 5654 5655 5656 5656 5655 5654 5655 5655 5656 5654 5652 5651 5651 5651 5649 5647 5646 5645 5644 5643 5639 5638 5638
5628 5633 5636 5638 5640 5642 5643 5644 5644 5645 5645 5645 5645 5646 5646 5647 5648 5648 5647 5647 5647 5648 5648 5649 5647 5643 5639 5639 5644 5644 5641 5641 5639 5638 5637 5635 5633 5633
5624 5628 5631 5633 5635 5636 5637 5638 5639 5639 5639 5639 5639 5640 5640 5640 5640 5640 5639 5639 5639 5639 5639 5640 5639 5637 5634 5634 5635 5637 5638 5635 5633 5631 5631 5630 5628 5628
5620 5623 5626 5628 5629 5630 5631 5631 5632 5632 5632 5632 5632 5632 5632 5631 5631 5632 5632 5630 5630 5630 5630 5630 5632 5632 5632 5630 5628 5629 5631 5630 5629 5626 5624 5622 5620 5620
5614 5616 5618 5620 5622 5623 5623 5624 5624 5625 5624 5624 5624 5624 5624 5624 5623 5623 5624 5623 5623 5623 5623 5624 5626 5626 5624 5622 5621 5622 5623 5623 5622 5621 5619 5618 5615 5614
5606 5608 5609 5611 5613 5614 5615 5616 5616 5616 5616 5616 5616 5616 5616 5616 5616 5616 5616 5616 5616 5616 5616 5616 5617 5617 5617 5617 5615 5616 5616 5615 5614 5613 5612 5612 5612 5612